Wetterdaten: Dienstag, 21.07.2015
Datum Zeit Auen-Temp. Temp gefhlt Luftfeuchte Luftdruck Regen Wind Richtung Richtung Taupunkt Windben
21.07.2015 00:00 17,8 C 17,5 C 76 % 1012,4 hPa 0,0 mm 0,0 km/h (0 Bft) S-SO 157 13,5 C 0,0 km/h (0 Bft)
21.07.2015 00:05 17,8 C 17,5 C 77 % 1012,4 hPa 0,0 mm 0,0 km/h (0 Bft) S-SO 157 13,7 C 0,0 km/h (0 Bft)
21.07.2015 00:10 17,7 C 17,4 C 77 % 1012,4 hPa 0,0 mm 0,0 km/h (0 Bft) S-SO 157 13,6 C 0,0 km/h (0 Bft)
21.07.2015 00:15 17,7 C 17,4 C 77 % 1012,4 hPa 0,0 mm 0,0 km/h (0 Bft) N 360 13,6 C 0,0 km/h (0 Bft)
21.07.2015 00:20 17,6 C 17,3 C 77 % 1012,4 hPa 0,0 mm 0,0 km/h (0 Bft) NO 45 13,5 C 0,0 km/h (0 Bft)
21.07.2015 00:25 17,5 C 17,3 C 77 % 1012,4 hPa 0,0 mm 0,0 km/h (0 Bft) N-NO 22 13,4 C 0,0 km/h (0 Bft)
21.07.2015 00:30 17,5 C 17,3 C 77 % 1012,2 hPa 0,0 mm 0,0 km/h (0 Bft) N-NO 22 13,4 C 0,0 km/h (0 Bft)
21.07.2015 00:35 17,6 C 17,3 C 78 % 1012,2 hPa 0,0 mm 0,0 km/h (0 Bft) NW 315 13,7 C 0,0 km/h (0 Bft)
21.07.2015 00:40 17,4 C 17,2 C 78 % 1012,2 hPa 0,0 mm 0,0 km/h (0 Bft) NO 45 13,5 C 0,0 km/h (0 Bft)
21.07.2015 00:45 17,4 C 17,2 C 78 % 1012,2 hPa 0,0 mm 0,0 km/h (0 Bft) O-NO 67 13,5 C 0,0 km/h (0 Bft)
21.07.2015 00:50 17,0 C 16,9 C 78 % 1012,5 hPa 0,0 mm 0,0 km/h (0 Bft) N-NO 22 13,1 C 0,0 km/h (0 Bft)
21.07.2015 00:55 16,9 C 16,7 C 79 % 1012,5 hPa 0,0 mm 0,0 km/h (0 Bft) NO 45 13,2 C 0,0 km/h (0 Bft)
21.07.2015 01:00 16,9 C 16,7 C 79 % 1012,5 hPa 0,0 mm 0,0 km/h (0 Bft) NO 45 13,2 C 0,0 km/h (0 Bft)
21.07.2015 01:05 16,8 C 16,6 C 79 % 1012,5 hPa 0,0 mm 0,0 km/h (0 Bft) O-NO 67 13,1 C 0,0 km/h (0 Bft)
21.07.2015 01:10 16,6 C 16,4 C 79 % 1012,4 hPa 0,0 mm 0,0 km/h (0 Bft) NO 45 12,9 C 0,0 km/h (0 Bft)
21.07.2015 01:15 16,5 C 16,3 C 80 % 1012,4 hPa 0,0 mm 0,0 km/h (0 Bft) NO 45 13,0 C 0,0 km/h (0 Bft)
21.07.2015 01:20 16,5 C 16,3 C 80 % 1012,4 hPa 0,0 mm 0,0 km/h (0 Bft) N-NO 22 13,0 C 0,0 km/h (0 Bft)
21.07.2015 01:25 16,5 C 16,3 C 80 % 1012,4 hPa 0,0 mm 0,0 km/h (0 Bft) O-NO 67 13,0 C 0,0 km/h (0 Bft)
21.07.2015 01:30 16,6 C 16,4 C 80 % 1012,5 hPa 0,0 mm 0,0 km/h (0 Bft) N-NO 22 13,1 C 0,0 km/h (0 Bft)
21.07.2015 01:35 16,6 C 16,4 C 80 % 1012,5 hPa 0,0 mm 0,0 km/h (0 Bft) O-NO 67 13,1 C 0,0 km/h (0 Bft)
21.07.2015 01:40 16,6 C 16,4 C 80 % 1012,5 hPa 0,0 mm 0,0 km/h (0 Bft) NO 45 13,1 C 0,0 km/h (0 Bft)
21.07.2015 01:45 16,6 C 16,4 C 81 % 1012,5 hPa 0,0 mm 0,0 km/h (0 Bft) NO 45 13,3 C 0,0 km/h (0 Bft)
21.07.2015 01:50 16,7 C 16,5 C 81 % 1012,5 hPa 0,0 mm 0,0 km/h (0 Bft) N-NW 337 13,4 C 0,0 km/h (0 Bft)
21.07.2015 01:55 16,5 C 16,3 C 80 % 1012,5 hPa 0,0 mm 0,0 km/h (0 Bft) N-NO 22 13,0 C 0,0 km/h (0 Bft)
21.07.2015 02:00 16,4 C 16,2 C 80 % 1012,5 hPa 0,0 mm 0,0 km/h (0 Bft) O-NO 67 12,9 C 0,0 km/h (0 Bft)
21.07.2015 02:05 16,4 C 16,2 C 80 % 1012,5 hPa 0,0 mm 0,0 km/h (0 Bft) NO 45 12,9 C 0,0 km/h (0 Bft)
21.07.2015 02:10 16,3 C 16,1 C 81 % 1012,4 hPa 0,0 mm 0,0 km/h (0 Bft) NO 45 13,0 C 0,0 km/h (0 Bft)
21.07.2015 02:15 16,3 C 16,1 C 81 % 1012,4 hPa 0,0 mm 0,0 km/h (0 Bft) O-NO 67 13,0 C 0,0 km/h (0 Bft)
21.07.2015 02:20 16,3 C 16,1 C 82 % 1012,4 hPa 0,0 mm 0,0 km/h (0 Bft) O-NO 67 13,2 C 0,0 km/h (0 Bft)
21.07.2015 02:25 16,2 C 16,0 C 82 % 1012,4 hPa 0,0 mm 0,0 km/h (0 Bft) O-NO 67 13,1 C 0,0 km/h (0 Bft)
21.07.2015 02:30 16,1 C 15,9 C 82 % 1012,4 hPa 0,0 mm 0,0 km/h (0 Bft) NW 315 13,0 C 0,0 km/h (0 Bft)
21.07.2015 02:32 16,1 C 15,9 C 82 % 1012,4 hPa 0,0 mm 0,0 km/h (0 Bft) NW 315 13,0 C 0,0 km/h (0 Bft)
21.07.2015 02:35 16,1 C 15,9 C 82 % 1012,4 hPa 0,0 mm 0,0 km/h (0 Bft) NW 315 13,0 C 0,0 km/h (0 Bft)
21.07.2015 02:40 16,0 C 15,8 C 82 % 1012,4 hPa 0,0 mm 0,0 km/h (0 Bft) NW 315 12,9 C 0,0 km/h (0 Bft)
21.07.2015 02:45 16,0 C 15,8 C 82 % 1012,4 hPa 0,0 mm 0,0 km/h (0 Bft) NW 315 12,9 C 0,0 km/h (0 Bft)
21.07.2015 02:50 16,1 C 15,9 C 82 % 1012,4 hPa 0,0 mm 0,0 km/h (0 Bft) W-SW 247 13,0 C 0,0 km/h (0 Bft)
21.07.2015 02:55 16,0 C 15,8 C 82 % 1012,4 hPa 0,0 mm 0,0 km/h (0 Bft) W-NW 292 12,9 C 0,0 km/h (0 Bft)
21.07.2015 03:00 16,2 C 16,1 C 83 % 1012,4 hPa 0,0 mm 0,0 km/h (0 Bft) W-SW 247 13,3 C 0,0 km/h (0 Bft)
21.07.2015 03:05 16,4 C 16,2 C 83 % 1012,4 hPa 0,0 mm 0,0 km/h (0 Bft) SW 225 13,5 C 0,0 km/h (0 Bft)
21.07.2015 03:10 16,3 C 16,2 C 82 % 1012,2 hPa 0,0 mm 0,0 km/h (0 Bft) W-SW 247 13,2 C 0,0 km/h (0 Bft)
21.07.2015 03:15 16,4 C 16,2 C 82 % 1012,2 hPa 0,0 mm 0,0 km/h (0 Bft) W 270 13,3 C 0,0 km/h (0 Bft)
21.07.2015 03:20 16,2 C 16,1 C 82 % 1012,2 hPa 0,0 mm 0,0 km/h (0 Bft) W-NW 292 13,1 C 0,0 km/h (0 Bft)
21.07.2015 03:25 16,2 C 16,1 C 82 % 1012,2 hPa 0,0 mm 0,0 km/h (0 Bft) W 270 13,1 C 0,0 km/h (0 Bft)
21.07.2015 03:30 16,2 C 16,0 C 82 % 1012,2 hPa 0,0 mm 0,0 km/h (0 Bft) W-NW 292 13,1 C 0,0 km/h (0 Bft)
21.07.2015 03:35 16,2 C 16,0 C 82 % 1012,2 hPa 0,0 mm 0,0 km/h (0 Bft) W-NW 292 13,1 C 0,0 km/h (0 Bft)
21.07.2015 03:40 16,1 C 15,9 C 82 % 1012,2 hPa 0,0 mm 0,0 km/h (0 Bft) W-NW 292 13,0 C 0,0 km/h (0 Bft)
21.07.2015 03:45 16,2 C 16,0 C 82 % 1012,2 hPa 0,0 mm 0,0 km/h (0 Bft) W-NW 292 13,1 C 0,0 km/h (0 Bft)
21.07.2015 03:50 16,1 C 15,9 C 82 % 1012,1 hPa 0,0 mm 0,0 km/h (0 Bft) O-NO 67 13,0 C 0,0 km/h (0 Bft)
21.07.2015 03:55 16,2 C 16,0 C 82 % 1012,1 hPa 0,0 mm 0,0 km/h (0 Bft) N-NO 22 13,1 C 0,0 km/h (0 Bft)
21.07.2015 04:00 15,9 C 15,7 C 83 % 1012,1 hPa 0,0 mm 0,0 km/h (0 Bft) N-NO 22 13,0 C 0,0 km/h (0 Bft)
21.07.2015 04:05 15,9 C 15,7 C 83 % 1012,1 hPa 0,0 mm 0,0 km/h (0 Bft) N-NO 22 13,0 C 0,0 km/h (0 Bft)
21.07.2015 04:10 16,0 C 15,7 C 82 % 1012,2 hPa 0,0 mm 0,0 km/h (0 Bft) S 180 12,9 C 0,0 km/h (0 Bft)
21.07.2015 04:15 16,5 C 16,1 C 83 % 1012,2 hPa 0,0 mm 0,0 km/h (0 Bft) O-NO 67 13,6 C 0,0 km/h (0 Bft)
21.07.2015 04:20 16,4 C 16,1 C 83 % 1012,2 hPa 0,0 mm 0,0 km/h (0 Bft) O-SO 112 13,5 C 0,0 km/h (0 Bft)
21.07.2015 04:25 16,1 C 15,9 C 82 % 1012,2 hPa 0,0 mm 0,0 km/h (0 Bft) O-SO 112 13,0 C 0,0 km/h (0 Bft)
21.07.2015 04:30 15,7 C 15,5 C 83 % 1012,1 hPa 0,0 mm 0,0 km/h (0 Bft) N-NW 337 12,8 C 0,0 km/h (0 Bft)
21.07.2015 04:35 15,8 C 15,6 C 83 % 1012,1 hPa 0,0 mm 0,0 km/h (0 Bft) O-NO 67 12,9 C 0,0 km/h (0 Bft)
21.07.2015 04:40 15,7 C 15,5 C 84 % 1012,1 hPa 0,0 mm 0,3 km/h (0 Bft) O-NO 67 13,0 C 0,0 km/h (0 Bft)
21.07.2015 04:45 15,7 C 15,5 C 84 % 1012,1 hPa 0,0 mm 0,3 km/h (0 Bft) O-SO 112 13,0 C 0,0 km/h (0 Bft)
21.07.2015 04:50 15,5 C 15,3 C 84 % 1012,0 hPa 0,0 mm 0,0 km/h (0 Bft) O-NO 67 12,8 C 0,0 km/h (0 Bft)
21.07.2015 04:55 15,5 C 15,3 C 84 % 1012,0 hPa 0,0 mm 0,0 km/h (0 Bft) NO 45 12,8 C 0,0 km/h (0 Bft)
21.07.2015 05:00 15,4 C 15,2 C 84 % 1012,0 hPa 0,0 mm 0,0 km/h (0 Bft) O-NO 67 12,7 C 0,0 km/h (0 Bft)
21.07.2015 05:05 15,2 C 15,0 C 84 % 1012,0 hPa 0,0 mm 0,0 km/h (0 Bft) O-NO 67 12,5 C 0,0 km/h (0 Bft)
21.07.2015 05:10 15,1 C 14,9 C 84 % 1012,1 hPa 0,0 mm 0,0 km/h (0 Bft) N-NO 22 12,4 C 0,0 km/h (0 Bft)
21.07.2015 05:15 15,0 C 14,8 C 84 % 1012,1 hPa 0,0 mm 0,0 km/h (0 Bft) N-NO 22 12,3 C 0,0 km/h (0 Bft)
21.07.2015 05:20 14,9 C 14,7 C 84 % 1012,1 hPa 0,0 mm 0,0 km/h (0 Bft) O-NO 67 12,2 C 0,0 km/h (0 Bft)
21.07.2015 05:25 14,8 C 14,6 C 85 % 1012,1 hPa 0,0 mm 0,0 km/h (0 Bft) NO 45 12,3 C 0,0 km/h (0 Bft)
21.07.2015 05:30 14,9 C 14,7 C 85 % 1012,3 hPa 0,0 mm 0,0 km/h (0 Bft) NO 45 12,4 C 0,0 km/h (0 Bft)
21.07.2015 05:35 14,8 C 14,6 C 85 % 1012,3 hPa 0,0 mm 0,0 km/h (0 Bft) O-NO 67 12,3 C 0,0 km/h (0 Bft)
21.07.2015 05:40 14,8 C 14,6 C 85 % 1012,3 hPa 0,0 mm 0,0 km/h (0 Bft) O-NO 67 12,3 C 0,0 km/h (0 Bft)
21.07.2015 05:45 14,7 C 14,5 C 85 % 1012,3 hPa 0,0 mm 0,0 km/h (0 Bft) O 90 12,2 C 0,0 km/h (0 Bft)
21.07.2015 05:50 14,9 C 14,7 C 85 % 1012,4 hPa 0,0 mm 0,0 km/h (0 Bft) O-NO 67 12,4 C 0,0 km/h (0 Bft)
21.07.2015 05:55 14,8 C 14,6 C 85 % 1012,4 hPa 0,0 mm 0,0 km/h (0 Bft) O-NO 67 12,3 C 0,0 km/h (0 Bft)
21.07.2015 06:00 14,7 C 14,6 C 85 % 1012,4 hPa 0,0 mm 0,0 km/h (0 Bft) N-NO 22 12,2 C 0,0 km/h (0 Bft)
21.07.2015 06:05 14,7 C 14,6 C 85 % 1012,4 hPa 0,0 mm 0,0 km/h (0 Bft) W-NW 292 12,2 C 0,0 km/h (0 Bft)
21.07.2015 06:10 14,8 C 15,0 C 85 % 1012,4 hPa 0,0 mm 0,0 km/h (0 Bft) NW 315 12,3 C 0,0 km/h (0 Bft)
21.07.2015 06:15 15,0 C 15,8 C 83 % 1012,4 hPa 0,0 mm 0,0 km/h (0 Bft) O-NO 67 12,1 C 0,0 km/h (0 Bft)
21.07.2015 06:20 15,1 C 17,4 C 83 % 1012,4 hPa 0,0 mm 0,0 km/h (0 Bft) O-NO 67 12,2 C 0,0 km/h (0 Bft)
21.07.2015 06:25 15,4 C 18,6 C 83 % 1012,4 hPa 0,0 mm 0,0 km/h (0 Bft) O-NO 67 12,5 C 0,0 km/h (0 Bft)
21.07.2015 06:30 16,0 C 19,7 C 82 % 1012,3 hPa 0,0 mm 0,0 km/h (0 Bft) NO 45 12,9 C 0,0 km/h (0 Bft)
21.07.2015 06:35 16,3 C 20,5 C 81 % 1012,3 hPa 0,0 mm 0,0 km/h (0 Bft) NO 45 13,0 C 0,0 km/h (0 Bft)
21.07.2015 06:40 16,6 C 21,3 C 83 % 1012,3 hPa 0,0 mm 0,0 km/h (0 Bft) NO 45 13,7 C 0,0 km/h (0 Bft)
21.07.2015 06:45 16,6 C 21,8 C 80 % 1012,3 hPa 0,0 mm 0,0 km/h (0 Bft) O-NO 67 13,1 C 0,0 km/h (0 Bft)
21.07.2015 06:50 17,1 C 23,5 C 79 % 1012,4 hPa 0,0 mm 0,0 km/h (0 Bft) O-NO 67 13,4 C 0,0 km/h (0 Bft)
21.07.2015 06:55 17,6 C 24,2 C 79 % 1012,4 hPa 0,0 mm 0,0 km/h (0 Bft) O-NO 67 13,9 C 0,0 km/h (0 Bft)
21.07.2015 07:00 18,2 C 24,8 C 79 % 1012,4 hPa 0,0 mm 0,0 km/h (0 Bft) O-NO 67 14,5 C 0,0 km/h (0 Bft)
21.07.2015 07:05 18,6 C 25,5 C 79 % 1012,4 hPa 0,0 mm 0,0 km/h (0 Bft) O 90 14,9 C 0,0 km/h (0 Bft)
21.07.2015 07:10 18,8 C 25,9 C 76 % 1012,5 hPa 0,0 mm 0,0 km/h (0 Bft) O-NO 67 14,5 C 0,0 km/h (0 Bft)
21.07.2015 07:15 19,2 C 26,5 C 76 % 1012,5 hPa 0,0 mm 0,0 km/h (0 Bft) O-NO 67 14,9 C 0,0 km/h (0 Bft)
21.07.2015 07:20 19,6 C 27,2 C 74 % 1012,5 hPa 0,0 mm 0,0 km/h (0 Bft) O 90 14,8 C 0,0 km/h (0 Bft)
21.07.2015 07:25 19,6 C 27,3 C 73 % 1012,5 hPa 0,0 mm 0,0 km/h (0 Bft) O-NO 67 14,6 C 0,0 km/h (0 Bft)
21.07.2015 07:30 20,2 C 28,1 C 73 % 1013,1 hPa 0,0 mm 0,0 km/h (0 Bft) O-NO 67 15,2 C 0,0 km/h (0 Bft)
21.07.2015 07:35 20,4 C 28,7 C 72 % 1013,1 hPa 0,0 mm 0,0 km/h (0 Bft) O-NO 67 15,2 C 0,0 km/h (0 Bft)
21.07.2015 07:40 20,8 C 29,1 C 72 % 1013,1 hPa 0,0 mm 0,0 km/h (0 Bft) O-NO 67 15,6 C 0,0 km/h (0 Bft)
21.07.2015 07:45 21,0 C 29,3 C 71 % 1013,1 hPa 0,0 mm 0,0 km/h (0 Bft) O-NO 67 15,5 C 0,0 km/h (0 Bft)
21.07.2015 07:50 21,8 C 30,1 C 71 % 1012,6 hPa 0,0 mm 0,0 km/h (0 Bft) O-NO 67 16,3 C 0,0 km/h (0 Bft)
21.07.2015 07:55 22,5 C 30,1 C 69 % 1012,6 hPa 0,0 mm 0,0 km/h (0 Bft) O-NO 67 16,5 C 0,0 km/h (0 Bft)
21.07.2015 08:00 21,8 C 29,7 C 68 % 1012,6 hPa 0,0 mm 0,0 km/h (0 Bft) O-NO 67 15,6 C 0,0 km/h (0 Bft)
21.07.2015 08:05 22,2 C 30,2 C 68 % 1012,6 hPa 0,0 mm 0,0 km/h (0 Bft) O-NO 67 16,0 C 0,0 km/h (0 Bft)
21.07.2015 08:10 22,2 C 31,2 C 69 % 1012,7 hPa 0,0 mm 0,0 km/h (0 Bft) O-NO 67 16,2 C 0,0 km/h (0 Bft)
21.07.2015 08:15 22,4 C 31,5 C 68 % 1012,7 hPa 0,0 mm 0,0 km/h (0 Bft) O-SO 112 16,2 C 0,0 km/h (0 Bft)
21.07.2015 08:20 22,7 C 32,1 C 68 % 1012,7 hPa 0,0 mm 0,0 km/h (0 Bft) O-SO 112 16,5 C 0,0 km/h (0 Bft)
21.07.2015 08:25 22,7 C 32,0 C 68 % 1012,7 hPa 0,0 mm 0,0 km/h (0 Bft) O-SO 112 16,5 C 0,0 km/h (0 Bft)
21.07.2015 08:30 23,1 C 32,8 C 66 % 1012,8 hPa 0,0 mm 0,0 km/h (0 Bft) O-SO 112 16,4 C 0,0 km/h (0 Bft)
21.07.2015 08:33 23,3 C 32,8 C 66 % 1012,8 hPa 0,0 mm 0,0 km/h (0 Bft) O-SO 112 16,6 C 0,0 km/h (0 Bft)
21.07.2015 08:35 23,3 C 32,8 C 66 % 1012,8 hPa 0,0 mm 0,0 km/h (0 Bft) O-SO 112 16,6 C 0,0 km/h (0 Bft)
21.07.2015 08:40 23,2 C 33,1 C 67 % 1012,8 hPa 0,0 mm 0,0 km/h (0 Bft) O-SO 112 16,7 C 0,0 km/h (0 Bft)
21.07.2015 08:45 23,6 C 33,5 C 67 % 1012,8 hPa 0,0 mm 0,0 km/h (0 Bft) O-SO 112 17,1 C 0,0 km/h (0 Bft)
21.07.2015 08:50 23,9 C 34,0 C 65 % 1013,3 hPa 0,0 mm 0,0 km/h (0 Bft) O-SO 112 16,9 C 0,0 km/h (0 Bft)
21.07.2015 08:55 24,0 C 34,4 C 64 % 1013,3 hPa 0,0 mm 0,0 km/h (0 Bft) O-SO 112 16,8 C 0,0 km/h (0 Bft)
21.07.2015 09:00 24,6 C 34,3 C 64 % 1013,3 hPa 0,0 mm 0,0 km/h (0 Bft) O-SO 112 17,3 C 0,0 km/h (0 Bft)
21.07.2015 09:05 24,8 C 34,5 C 63 % 1013,3 hPa 0,0 mm 0,3 km/h (0 Bft) NW 315 17,3 C 3,1 km/h (1 Bft)
21.07.2015 09:10 25,7 C 34,7 C 62 % 1013,6 hPa 0,0 mm 0,5 km/h (0 Bft) N-NO 22 17,9 C 0,0 km/h (0 Bft)
21.07.2015 09:15 25,4 C 34,8 C 59 % 1013,6 hPa 0,0 mm 0,5 km/h (0 Bft) O-NO 67 16,8 C 0,0 km/h (0 Bft)
21.07.2015 09:20 25,3 C 34,6 C 59 % 1013,6 hPa 0,0 mm 0,0 km/h (0 Bft) S 180 16,7 C 0,0 km/h (0 Bft)
21.07.2015 09:25 25,4 C 34,4 C 60 % 1013,6 hPa 0,0 mm 0,3 km/h (0 Bft) S-SO 157 17,1 C 0,0 km/h (0 Bft)
21.07.2015 09:30 26,1 C 34,3 C 59 % 1013,7 hPa 0,0 mm 2,8 km/h (1 Bft) SW 225 17,4 C 9,8 km/h (2 Bft)
21.07.2015 09:35 26,2 C 33,6 C 57 % 1013,7 hPa 0,0 mm 6,0 km/h (2 Bft) W 270 17,0 C 12,4 km/h (3 Bft)
21.07.2015 09:40 26,4 C 32,7 C 56 % 1013,7 hPa 0,0 mm 8,0 km/h (2 Bft) NW 315 16,9 C 15,0 km/h (3 Bft)
21.07.2015 09:45 26,4 C 32,5 C 55 % 1013,7 hPa 0,0 mm 7,5 km/h (2 Bft) NW 315 16,6 C 6,2 km/h (2 Bft)
21.07.2015 09:50 26,4 C 32,3 C 55 % 1013,9 hPa 0,0 mm 7,3 km/h (2 Bft) NW 315 16,6 C 13,5 km/h (3 Bft)
21.07.2015 09:55 26,5 C 32,2 C 54 % 1013,9 hPa 0,0 mm 7,8 km/h (2 Bft) SW 225 16,4 C 9,6 km/h (2 Bft)
21.07.2015 10:00 26,5 C 32,0 C 53 % 1013,9 hPa 0,0 mm 8,8 km/h (2 Bft) NW 315 16,1 C 15,8 km/h (3 Bft)
21.07.2015 10:05 26,3 C 32,3 C 53 % 1013,9 hPa 0,0 mm 6,7 km/h (2 Bft) W 270 15,9 C 3,4 km/h (1 Bft)
21.07.2015 10:10 26,6 C 33,1 C 54 % 1014,0 hPa 0,0 mm 4,7 km/h (1 Bft) W-NW 292 16,5 C 7,8 km/h (2 Bft)
21.07.2015 10:15 26,5 C 33,0 C 54 % 1014,0 hPa 0,0 mm 5,2 km/h (1 Bft) SW 225 16,4 C 7,3 km/h (2 Bft)
21.07.2015 10:20 26,5 C 32,6 C 54 % 1014,0 hPa 0,0 mm 7,5 km/h (2 Bft) W 270 16,4 C 6,5 km/h (2 Bft)
21.07.2015 10:25 26,5 C 32,4 C 54 % 1014,0 hPa 0,0 mm 7,3 km/h (2 Bft) S 180 16,4 C 8,0 km/h (2 Bft)
21.07.2015 10:30 26,8 C 32,3 C 55 % 1014,3 hPa 0,0 mm 7,3 km/h (2 Bft) NW 315 17,0 C 9,1 km/h (2 Bft)
21.07.2015 10:35 27,0 C 32,3 C 54 % 1014,3 hPa 0,0 mm 8,0 km/h (2 Bft) W 270 16,9 C 8,5 km/h (2 Bft)
21.07.2015 10:40 27,3 C 32,3 C 54 % 1014,3 hPa 0,0 mm 7,5 km/h (2 Bft) N-NW 337 17,2 C 16,1 km/h (3 Bft)
21.07.2015 10:45 27,5 C 32,3 C 54 % 1014,3 hPa 0,0 mm 7,0 km/h (2 Bft) W 270 17,3 C 7,5 km/h (2 Bft)
21.07.2015 10:50 27,5 C 32,7 C 54 % 1014,3 hPa 0,0 mm 6,0 km/h (2 Bft) NW 315 17,3 C 8,5 km/h (2 Bft)
21.07.2015 10:55 27,7 C 32,9 C 53 % 1014,3 hPa 0,0 mm 5,4 km/h (1 Bft) NW 315 17,2 C 5,7 km/h (1 Bft)
21.07.2015 11:00 27,7 C 33,1 C 53 % 1014,3 hPa 0,0 mm 5,7 km/h (1 Bft) NW 315 17,2 C 6,2 km/h (2 Bft)
21.07.2015 11:05 27,8 C 32,9 C 52 % 1014,3 hPa 0,0 mm 7,3 km/h (2 Bft) NW 315 17,0 C 13,7 km/h (3 Bft)
21.07.2015 11:10 27,8 C 32,6 C 52 % 1014,5 hPa 0,0 mm 7,5 km/h (2 Bft) W-NW 292 17,0 C 9,3 km/h (2 Bft)
21.07.2015 11:15 28,1 C 32,9 C 51 % 1014,5 hPa 0,0 mm 6,2 km/h (2 Bft) NW 315 17,0 C 6,5 km/h (2 Bft)
21.07.2015 11:20 28,2 C 33,9 C 51 % 1014,5 hPa 0,0 mm 3,4 km/h (1 Bft) S 180 17,1 C 4,1 km/h (1 Bft)
21.07.2015 11:25 28,1 C 34,0 C 51 % 1014,5 hPa 0,0 mm 2,8 km/h (1 Bft) W-NW 292 17,0 C 12,2 km/h (2 Bft)
21.07.2015 11:30 28,2 C 33,8 C 50 % 1014,6 hPa 0,0 mm 3,9 km/h (1 Bft) W-SW 247 16,8 C 0,0 km/h (0 Bft)
21.07.2015 11:35 28,4 C 33,6 C 50 % 1014,6 hPa 0,0 mm 6,7 km/h (2 Bft) N-NO 22 17,0 C 16,3 km/h (3 Bft)
21.07.2015 11:40 28,2 C 32,6 C 50 % 1014,6 hPa 0,0 mm 8,3 km/h (2 Bft) N-NW 337 16,8 C 19,7 km/h (3 Bft)
21.07.2015 11:45 28,1 C 32,8 C 50 % 1014,6 hPa 0,0 mm 8,0 km/h (2 Bft) NO 45 16,7 C 9,1 km/h (2 Bft)
21.07.2015 11:50 28,0 C 32,9 C 50 % 1014,6 hPa 0,0 mm 3,6 km/h (1 Bft) NO 45 16,6 C 0,0 km/h (0 Bft)
21.07.2015 11:55 28,3 C 33,4 C 50 % 1014,6 hPa 0,0 mm 5,2 km/h (1 Bft) W 270 16,9 C 14,2 km/h (3 Bft)
21.07.2015 12:00 28,3 C 33,3 C 50 % 1014,6 hPa 0,0 mm 5,4 km/h (1 Bft) S 180 16,9 C 0,0 km/h (0 Bft)
21.07.2015 12:05 28,3 C 33,3 C 50 % 1014,6 hPa 0,0 mm 5,4 km/h (1 Bft) O-SO 112 16,9 C 4,9 km/h (1 Bft)
21.07.2015 12:10 28,3 C 33,5 C 50 % 1014,6 hPa 0,0 mm 5,2 km/h (1 Bft) N 360 16,9 C 14,5 km/h (3 Bft)
21.07.2015 12:15 28,5 C 33,4 C 50 % 1014,6 hPa 0,0 mm 5,7 km/h (1 Bft) W-SW 247 17,0 C 7,8 km/h (2 Bft)
21.07.2015 12:20 28,6 C 33,1 C 50 % 1014,6 hPa 0,0 mm 8,0 km/h (2 Bft) N-NO 22 17,1 C 8,8 km/h (2 Bft)
21.07.2015 12:25 28,6 C 33,3 C 50 % 1014,6 hPa 0,0 mm 8,3 km/h (2 Bft) W-SW 247 17,1 C 13,5 km/h (3 Bft)
21.07.2015 12:30 28,6 C 32,9 C 49 % 1014,5 hPa 0,0 mm 8,3 km/h (2 Bft) W-NW 292 16,8 C 7,8 km/h (2 Bft)
21.07.2015 12:35 28,8 C 33,2 C 50 % 1014,5 hPa 0,0 mm 8,0 km/h (2 Bft) W-NW 292 17,3 C 12,7 km/h (3 Bft)
21.07.2015 12:40 29,0 C 33,9 C 49 % 1014,5 hPa 0,0 mm 4,4 km/h (1 Bft) O 90 17,2 C 6,2 km/h (2 Bft)
21.07.2015 12:45 28,8 C 34,0 C 49 % 1014,5 hPa 0,0 mm 4,1 km/h (1 Bft) N-NW 337 17,0 C 0,0 km/h (0 Bft)
21.07.2015 12:50 29,4 C 34,7 C 49 % 1014,5 hPa 0,0 mm 3,4 km/h (1 Bft) SO 135 17,5 C 3,6 km/h (1 Bft)
21.07.2015 12:55 29,7 C 35,4 C 50 % 1014,5 hPa 0,0 mm 2,8 km/h (1 Bft) N-NW 337 18,1 C 11,9 km/h (2 Bft)
21.07.2015 13:00 29,8 C 35,9 C 49 % 1014,5 hPa 0,0 mm 3,9 km/h (1 Bft) W-SW 247 17,9 C 6,0 km/h (2 Bft)
21.07.2015 13:05 29,6 C 35,9 C 48 % 1014,5 hPa 0,0 mm 4,9 km/h (1 Bft) N-NO 22 17,4 C 0,0 km/h (0 Bft)
21.07.2015 13:10 29,3 C 34,6 C 49 % 1014,4 hPa 0,0 mm 6,2 km/h (2 Bft) N-NW 337 17,5 C 7,0 km/h (2 Bft)
21.07.2015 13:15 28,6 C 32,9 C 49 % 1014,4 hPa 0,0 mm 6,7 km/h (2 Bft) NW 315 16,8 C 10,6 km/h (2 Bft)
21.07.2015 13:20 28,1 C 31,0 C 49 % 1014,4 hPa 0,0 mm 5,4 km/h (1 Bft) O-NO 67 16,4 C 0,0 km/h (0 Bft)
21.07.2015 13:25 28,4 C 31,2 C 49 % 1014,4 hPa 0,0 mm 4,4 km/h (1 Bft) W-SW 247 16,6 C 6,7 km/h (2 Bft)
21.07.2015 13:30 28,9 C 31,7 C 48 % 1014,2 hPa 0,0 mm 6,5 km/h (2 Bft) O-NO 67 16,8 C 5,7 km/h (1 Bft)
21.07.2015 13:35 28,8 C 31,7 C 48 % 1014,2 hPa 0,0 mm 6,7 km/h (2 Bft) W-SW 247 16,7 C 3,9 km/h (1 Bft)
21.07.2015 13:40 29,2 C 31,9 C 48 % 1014,2 hPa 0,0 mm 6,2 km/h (2 Bft) NW 315 17,0 C 4,1 km/h (1 Bft)
21.07.2015 13:45 29,2 C 32,0 C 48 % 1014,2 hPa 0,0 mm 6,0 km/h (2 Bft) NO 45 17,0 C 4,7 km/h (1 Bft)
21.07.2015 13:50 29,0 C 31,9 C 48 % 1014,1 hPa 0,0 mm 4,1 km/h (1 Bft) S-SO 157 16,9 C 5,4 km/h (1 Bft)
21.07.2015 13:55 29,1 C 31,9 C 48 % 1014,1 hPa 0,0 mm 4,1 km/h (1 Bft) NW 315 16,9 C 8,0 km/h (2 Bft)
21.07.2015 14:00 29,0 C 32,4 C 48 % 1014,1 hPa 0,0 mm 6,5 km/h (2 Bft) W-SW 247 16,9 C 3,9 km/h (1 Bft)
21.07.2015 14:05 29,1 C 32,9 C 47 % 1014,1 hPa 0,0 mm 6,7 km/h (2 Bft) SO 135 16,6 C 9,1 km/h (2 Bft)
21.07.2015 14:10 29,1 C 33,3 C 47 % 1013,8 hPa 0,0 mm 6,5 km/h (2 Bft) SO 135 16,6 C 2,6 km/h (1 Bft)
21.07.2015 14:15 29,2 C 33,7 C 47 % 1013,8 hPa 0,0 mm 4,7 km/h (1 Bft) NW 315 16,7 C 7,5 km/h (2 Bft)
21.07.2015 14:20 29,8 C 34,6 C 47 % 1013,8 hPa 0,0 mm 2,8 km/h (1 Bft) W-SW 247 17,2 C 4,1 km/h (1 Bft)
21.07.2015 14:25 30,1 C 35,4 C 47 % 1013,8 hPa 0,0 mm 4,1 km/h (1 Bft) W 270 17,5 C 3,4 km/h (1 Bft)
21.07.2015 14:30 30,7 C 36,5 C 46 % 1013,9 hPa 0,0 mm 3,4 km/h (1 Bft) W-SW 247 17,7 C 12,4 km/h (3 Bft)
21.07.2015 14:34 30,1 C 35,4 C 46 % 1013,9 hPa 0,0 mm 4,1 km/h (1 Bft) S-SO 157 17,2 C 7,5 km/h (2 Bft)
21.07.2015 14:35 30,1 C 35,4 C 46 % 1013,9 hPa 0,0 mm 4,1 km/h (1 Bft) S-SO 157 17,2 C 7,5 km/h (2 Bft)
21.07.2015 14:40 29,9 C 34,1 C 47 % 1013,9 hPa 0,0 mm 5,7 km/h (1 Bft) N-NW 337 17,3 C 6,5 km/h (2 Bft)
21.07.2015 14:45 30,2 C 34,6 C 46 % 1013,9 hPa 0,0 mm 6,0 km/h (2 Bft) W-NW 292 17,3 C 4,4 km/h (1 Bft)
21.07.2015 14:50 30,4 C 35,0 C 46 % 1013,6 hPa 0,0 mm 5,7 km/h (1 Bft) NW 315 17,5 C 3,9 km/h (1 Bft)
21.07.2015 14:55 30,3 C 35,3 C 46 % 1013,6 hPa 0,0 mm 3,6 km/h (1 Bft) O-NO 67 17,4 C 3,1 km/h (1 Bft)
21.07.2015 15:00 30,1 C 35,4 C 46 % 1013,6 hPa 0,0 mm 3,4 km/h (1 Bft) W-NW 292 17,2 C 5,4 km/h (1 Bft)
21.07.2015 15:05 30,2 C 35,2 C 46 % 1013,6 hPa 0,0 mm 4,9 km/h (1 Bft) N-NO 22 17,3 C 12,4 km/h (3 Bft)
21.07.2015 15:10 29,8 C 34,7 C 46 % 1013,5 hPa 0,0 mm 6,7 km/h (2 Bft) O-NO 67 16,9 C 7,8 km/h (2 Bft)
21.07.2015 15:15 30,1 C 34,9 C 47 % 1013,5 hPa 0,0 mm 7,5 km/h (2 Bft) W 270 17,5 C 12,4 km/h (3 Bft)
21.07.2015 15:20 30,3 C 34,6 C 46 % 1013,5 hPa 0,0 mm 7,8 km/h (2 Bft) NO 45 17,4 C 0,0 km/h (0 Bft)
21.07.2015 15:25 30,8 C 35,0 C 45 % 1013,5 hPa 0,0 mm 7,0 km/h (2 Bft) W-NW 292 17,5 C 6,7 km/h (2 Bft)
21.07.2015 15:30 30,8 C 35,7 C 45 % 1013,1 hPa 0,0 mm 4,1 km/h (1 Bft) W-NW 292 17,5 C 17,3 km/h (3 Bft)
21.07.2015 15:35 30,7 C 35,4 C 45 % 1013,1 hPa 0,0 mm 6,5 km/h (2 Bft) W-SW 247 17,4 C 10,4 km/h (2 Bft)
21.07.2015 15:40 30,4 C 35,2 C 45 % 1013,1 hPa 0,0 mm 8,5 km/h (2 Bft) S 180 17,1 C 12,9 km/h (3 Bft)
21.07.2015 15:45 29,9 C 34,6 C 45 % 1013,1 hPa 0,0 mm 7,3 km/h (2 Bft) W-NW 292 16,7 C 10,1 km/h (2 Bft)
21.07.2015 15:50 30,2 C 34,0 C 46 % 1013,0 hPa 0,0 mm 8,8 km/h (2 Bft) W-NW 292 17,3 C 16,8 km/h (3 Bft)
21.07.2015 15:55 30,5 C 34,2 C 46 % 1013,0 hPa 0,0 mm 8,3 km/h (2 Bft) NW 315 17,5 C 9,8 km/h (2 Bft)
21.07.2015 16:00 30,5 C 34,6 C 45 % 1013,0 hPa 0,0 mm 8,3 km/h (2 Bft) NW 315 17,2 C 7,8 km/h (2 Bft)
21.07.2015 16:05 30,5 C 34,7 C 45 % 1013,0 hPa 0,0 mm 8,3 km/h (2 Bft) N 360 17,2 C 9,3 km/h (2 Bft)
21.07.2015 16:10 30,0 C 34,9 C 45 % 1012,9 hPa 0,0 mm 8,0 km/h (2 Bft) W 270 16,7 C 10,1 km/h (2 Bft)
21.07.2015 16:15 29,6 C 34,8 C 45 % 1012,9 hPa 0,0 mm 7,8 km/h (2 Bft) W-NW 292 16,4 C 7,3 km/h (2 Bft)
21.07.2015 16:20 29,3 C 34,8 C 46 % 1012,9 hPa 0,0 mm 5,7 km/h (1 Bft) N-NO 22 16,5 C 0,0 km/h (0 Bft)
21.07.2015 16:25 29,1 C 34,3 C 46 % 1012,9 hPa 0,0 mm 4,7 km/h (1 Bft) NW 315 16,3 C 11,4 km/h (2 Bft)
21.07.2015 16:30 29,2 C 34,8 C 46 % 1012,9 hPa 0,0 mm 6,2 km/h (2 Bft) W-SW 247 16,4 C 20,7 km/h (4 Bft)
21.07.2015 16:35 29,2 C 34,8 C 47 % 1012,9 hPa 0,0 mm 7,8 km/h (2 Bft) W-NW 292 16,7 C 8,0 km/h (2 Bft)
21.07.2015 16:40 29,0 C 34,6 C 47 % 1012,9 hPa 0,0 mm 5,4 km/h (1 Bft) W-NW 292 16,5 C 2,6 km/h (1 Bft)
21.07.2015 16:45 29,0 C 35,6 C 47 % 1012,9 hPa 0,0 mm 3,4 km/h (1 Bft) NW 315 16,5 C 6,0 km/h (2 Bft)
21.07.2015 16:50 28,9 C 35,3 C 47 % 1012,8 hPa 0,0 mm 3,1 km/h (1 Bft) NW 315 16,4 C 5,7 km/h (1 Bft)
21.07.2015 16:55 28,9 C 34,9 C 47 % 1012,8 hPa 0,0 mm 5,2 km/h (1 Bft) SW 225 16,4 C 10,4 km/h (2 Bft)
21.07.2015 17:00 28,9 C 34,4 C 48 % 1012,8 hPa 0,0 mm 5,7 km/h (1 Bft) N-NW 337 16,8 C 5,4 km/h (1 Bft)
21.07.2015 17:05 28,8 C 33,4 C 48 % 1012,8 hPa 0,0 mm 4,9 km/h (1 Bft) SW 225 16,7 C 0,0 km/h (0 Bft)
21.07.2015 17:10 28,8 C 32,3 C 48 % 1012,6 hPa 0,0 mm 4,4 km/h (1 Bft) W 270 16,7 C 6,2 km/h (2 Bft)
21.07.2015 17:15 28,8 C 31,7 C 48 % 1012,6 hPa 0,0 mm 5,2 km/h (1 Bft) W-NW 292 16,7 C 10,4 km/h (2 Bft)
21.07.2015 17:20 28,8 C 30,7 C 48 % 1012,6 hPa 0,0 mm 7,8 km/h (2 Bft) NW 315 16,7 C 8,5 km/h (2 Bft)
21.07.2015 17:25 28,8 C 30,4 C 47 % 1012,6 hPa 0,0 mm 8,3 km/h (2 Bft) S 180 16,3 C 5,2 km/h (1 Bft)
21.07.2015 17:30 28,8 C 30,1 C 47 % 1012,6 hPa 0,0 mm 6,5 km/h (2 Bft) NW 315 16,3 C 5,4 km/h (1 Bft)
21.07.2015 17:35 28,7 C 30,1 C 47 % 1012,6 hPa 0,0 mm 4,9 km/h (1 Bft) NW 315 16,3 C 4,9 km/h (1 Bft)
21.07.2015 17:40 28,8 C 29,9 C 46 % 1012,6 hPa 0,0 mm 4,7 km/h (1 Bft) N-NW 337 16,0 C 6,0 km/h (2 Bft)
21.07.2015 17:45 28,7 C 29,9 C 46 % 1012,6 hPa 0,0 mm 4,7 km/h (1 Bft) N-NW 337 15,9 C 4,9 km/h (1 Bft)
21.07.2015 17:50 28,7 C 30,0 C 47 % 1012,4 hPa 0,0 mm 2,8 km/h (1 Bft) N-NO 22 16,3 C 3,9 km/h (1 Bft)
21.07.2015 17:55 28,5 C 30,0 C 46 % 1012,4 hPa 0,0 mm 2,3 km/h (1 Bft) NO 45 15,7 C 0,0 km/h (0 Bft)
21.07.2015 18:00 28,5 C 29,9 C 47 % 1012,4 hPa 0,0 mm 2,3 km/h (1 Bft) O 90 16,1 C 4,4 km/h (1 Bft)
21.07.2015 18:05 28,6 C 29,9 C 48 % 1012,4 hPa 0,0 mm 1,8 km/h (1 Bft) N-NW 337 16,5 C 3,9 km/h (1 Bft)
21.07.2015 18:10 28,4 C 29,7 C 47 % 1012,2 hPa 0,0 mm 3,6 km/h (1 Bft) W 270 16,0 C 5,4 km/h (1 Bft)
21.07.2015 18:15 28,5 C 29,6 C 48 % 1012,2 hPa 0,0 mm 3,4 km/h (1 Bft) W 270 16,4 C 3,9 km/h (1 Bft)
21.07.2015 18:20 28,4 C 29,6 C 47 % 1012,2 hPa 0,0 mm 4,7 km/h (1 Bft) W 270 16,0 C 11,7 km/h (2 Bft)
21.07.2015 18:25 28,5 C 29,4 C 47 % 1012,2 hPa 0,0 mm 6,0 km/h (2 Bft) W 270 16,1 C 7,3 km/h (2 Bft)
21.07.2015 18:30 28,4 C 29,3 C 48 % 1012,2 hPa 0,0 mm 4,9 km/h (1 Bft) NW 315 16,3 C 0,0 km/h (0 Bft)
21.07.2015 18:35 28,4 C 29,3 C 48 % 1012,2 hPa 0,0 mm 2,8 km/h (1 Bft) N-NO 22 16,3 C 2,8 km/h (1 Bft)
21.07.2015 18:40 28,2 C 29,2 C 47 % 1012,2 hPa 0,0 mm 1,8 km/h (1 Bft) NW 315 15,8 C 6,0 km/h (2 Bft)
21.07.2015 18:45 28,3 C 29,1 C 47 % 1012,2 hPa 0,0 mm 3,6 km/h (1 Bft) N-NO 22 15,9 C 4,4 km/h (1 Bft)
21.07.2015 18:50 28,3 C 29,4 C 47 % 1012,1 hPa 0,0 mm 4,7 km/h (1 Bft) W-SW 247 15,9 C 14,2 km/h (3 Bft)
21.07.2015 18:55 28,2 C 29,8 C 47 % 1012,1 hPa 0,0 mm 4,7 km/h (1 Bft) SW 225 15,8 C 8,0 km/h (2 Bft)
21.07.2015 19:00 28,2 C 30,4 C 47 % 1012,1 hPa 0,0 mm 6,0 km/h (2 Bft) NW 315 15,8 C 5,4 km/h (1 Bft)
21.07.2015 19:05 28,2 C 31,2 C 46 % 1012,1 hPa 0,0 mm 4,4 km/h (1 Bft) W-NW 292 15,5 C 0,0 km/h (0 Bft)
21.07.2015 19:10 28,2 C 32,5 C 46 % 1012,1 hPa 0,0 mm 3,4 km/h (1 Bft) W-NW 292 15,5 C 6,7 km/h (2 Bft)
21.07.2015 19:15 28,2 C 32,9 C 47 % 1012,1 hPa 0,0 mm 4,7 km/h (1 Bft) W-NW 292 15,8 C 4,9 km/h (1 Bft)
21.07.2015 19:20 28,1 C 32,9 C 47 % 1012,1 hPa 0,0 mm 5,7 km/h (1 Bft) NW 315 15,7 C 7,3 km/h (2 Bft)
21.07.2015 19:25 28,0 C 32,9 C 47 % 1012,1 hPa 0,0 mm 4,9 km/h (1 Bft) N-NW 337 15,6 C 5,2 km/h (1 Bft)
21.07.2015 19:30 28,1 C 32,9 C 46 % 1012,1 hPa 0,0 mm 3,9 km/h (1 Bft) NW 315 15,4 C 3,1 km/h (1 Bft)
21.07.2015 19:35 28,0 C 33,1 C 47 % 1012,1 hPa 0,0 mm 2,6 km/h (1 Bft) NW 315 15,6 C 0,0 km/h (0 Bft)
21.07.2015 19:40 27,7 C 33,2 C 48 % 1012,1 hPa 0,0 mm 1,0 km/h (0 Bft) W 270 15,7 C 2,6 km/h (1 Bft)
21.07.2015 19:45 27,6 C 33,2 C 49 % 1012,1 hPa 0,0 mm 0,5 km/h (0 Bft) W 270 15,9 C 2,6 km/h (1 Bft)
21.07.2015 19:50 27,5 C 33,2 C 49 % 1012,2 hPa 0,0 mm 0,3 km/h (0 Bft) N-NO 22 15,8 C 0,0 km/h (0 Bft)
21.07.2015 19:55 27,5 C 33,3 C 49 % 1012,2 hPa 0,0 mm 0,3 km/h (0 Bft) O-NO 67 15,8 C 0,0 km/h (0 Bft)
21.07.2015 20:00 27,3 C 33,4 C 49 % 1012,2 hPa 0,0 mm 0,0 km/h (0 Bft) O-SO 112 15,6 C 0,0 km/h (0 Bft)
21.07.2015 20:05 27,2 C 33,1 C 50 % 1012,2 hPa 0,0 mm 0,3 km/h (0 Bft) O-NO 67 15,9 C 6,2 km/h (2 Bft)
21.07.2015 20:10 27,0 C 32,3 C 50 % 1012,1 hPa 0,0 mm 0,8 km/h (0 Bft) O-SO 112 15,7 C 0,0 km/h (0 Bft)
21.07.2015 20:15 26,7 C 31,9 C 51 % 1012,1 hPa 0,0 mm 0,8 km/h (0 Bft) S 180 15,7 C 0,0 km/h (0 Bft)
21.07.2015 20:20 26,4 C 31,4 C 53 % 1012,1 hPa 0,0 mm 0,0 km/h (0 Bft) O-SO 112 16,0 C 2,6 km/h (1 Bft)
21.07.2015 20:25 26,3 C 31,0 C 53 % 1012,1 hPa 0,0 mm 0,0 km/h (0 Bft) SO 135 15,9 C 0,0 km/h (0 Bft)
21.07.2015 20:30 26,0 C 30,4 C 54 % 1012,2 hPa 0,0 mm 0,3 km/h (0 Bft) S-SO 157 16,0 C 0,0 km/h (0 Bft)
21.07.2015 20:35 25,8 C 29,9 C 56 % 1012,2 hPa 0,0 mm 0,5 km/h (0 Bft) SO 135 16,3 C 2,8 km/h (1 Bft)
21.07.2015 20:40 25,7 C 29,3 C 56 % 1012,2 hPa 0,0 mm 1,0 km/h (0 Bft) SO 135 16,2 C 3,1 km/h (1 Bft)
21.07.2015 20:45 25,5 C 28,9 C 57 % 1012,2 hPa 0,0 mm 0,8 km/h (0 Bft) SO 135 16,3 C 0,0 km/h (0 Bft)
21.07.2015 20:50 24,4 C 28,2 C 59 % 1012,0 hPa 0,0 mm 0,3 km/h (0 Bft) SO 135 15,9 C 0,0 km/h (0 Bft)
21.07.2015 20:55 24,3 C 27,8 C 59 % 1012,0 hPa 0,0 mm 0,0 km/h (0 Bft) S-SO 157 15,8 C 0,0 km/h (0 Bft)
21.07.2015 21:00 23,9 C 27,0 C 60 % 1012,0 hPa 0,0 mm 0,5 km/h (0 Bft) SO 135 15,7 C 0,0 km/h (0 Bft)
21.07.2015 21:05 23,6 C 26,0 C 61 % 1012,0 hPa 0,0 mm 0,5 km/h (0 Bft) O-SO 112 15,6 C 0,0 km/h (0 Bft)
21.07.2015 21:10 23,2 C 24,7 C 61 % 1012,2 hPa 0,0 mm 0,0 km/h (0 Bft) S-SO 157 15,3 C 0,0 km/h (0 Bft)
21.07.2015 21:15 22,8 C 23,9 C 64 % 1012,2 hPa 0,0 mm 0,0 km/h (0 Bft) SO 135 15,6 C 0,0 km/h (0 Bft)
21.07.2015 21:20 22,2 C 23,1 C 65 % 1012,2 hPa 0,0 mm 0,0 km/h (0 Bft) O-SO 112 15,3 C 0,0 km/h (0 Bft)
21.07.2015 21:25 21,9 C 22,5 C 66 % 1012,2 hPa 0,0 mm 0,0 km/h (0 Bft) S-SO 157 15,3 C 0,0 km/h (0 Bft)
21.07.2015 21:30 21,8 C 22,5 C 68 % 1012,4 hPa 0,0 mm 0,0 km/h (0 Bft) SO 135 15,6 C 0,0 km/h (0 Bft)
21.07.2015 21:35 21,6 C 22,5 C 68 % 1012,4 hPa 0,0 mm 1,3 km/h (1 Bft) S-SO 157 15,4 C 3,9 km/h (1 Bft)
21.07.2015 21:40 22,0 C 22,6 C 68 % 1012,4 hPa 0,0 mm 2,8 km/h (1 Bft) S-SO 157 15,8 C 2,8 km/h (1 Bft)
21.07.2015 21:45 21,9 C 22,5 C 68 % 1012,4 hPa 0,0 mm 2,3 km/h (1 Bft) S-SO 157 15,7 C 0,0 km/h (0 Bft)
21.07.2015 21:50 21,7 C 22,3 C 69 % 1012,6 hPa 0,0 mm 1,3 km/h (1 Bft) SO 135 15,8 C 3,6 km/h (1 Bft)
21.07.2015 21:55 21,6 C 22,2 C 69 % 1012,6 hPa 0,0 mm 0,5 km/h (0 Bft) S-SO 157 15,7 C 0,0 km/h (0 Bft)
21.07.2015 22:00 21,5 C 22,0 C 69 % 1012,6 hPa 0,0 mm 0,8 km/h (0 Bft) S-SO 157 15,6 C 3,1 km/h (1 Bft)
21.07.2015 22:05 21,3 C 21,8 C 69 % 1012,6 hPa 0,0 mm 1,3 km/h (1 Bft) S-SO 157 15,4 C 0,0 km/h (0 Bft)
21.07.2015 22:10 20,7 C 21,4 C 71 % 1012,6 hPa 0,0 mm 1,3 km/h (1 Bft) S 180 15,2 C 3,4 km/h (1 Bft)
21.07.2015 22:15 20,4 C 21,2 C 71 % 1012,6 hPa 0,0 mm 1,3 km/h (1 Bft) S 180 15,0 C 3,1 km/h (1 Bft)
21.07.2015 22:20 20,5 C 20,9 C 72 % 1012,6 hPa 0,0 mm 1,0 km/h (0 Bft) S 180 15,3 C 0,0 km/h (0 Bft)
21.07.2015 22:25 20,4 C 20,7 C 72 % 1012,6 hPa 0,0 mm 0,5 km/h (0 Bft) S 180 15,2 C 0,0 km/h (0 Bft)
21.07.2015 22:30 20,2 C 20,4 C 71 % 1012,4 hPa 0,0 mm 0,0 km/h (0 Bft) O-NO 67 14,8 C 0,0 km/h (0 Bft)
21.07.2015 22:35 20,1 C 20,2 C 72 % 1012,4 hPa 0,0 mm 0,0 km/h (0 Bft) O-NO 67 14,9 C 0,0 km/h (0 Bft)
21.07.2015 22:40 19,8 C 19,8 C 72 % 1012,4 hPa 0,0 mm 0,0 km/h (0 Bft) O-NO 67 14,6 C 0,0 km/h (0 Bft)
21.07.2015 22:45 19,6 C 19,5 C 72 % 1012,4 hPa 0,0 mm 0,0 km/h (0 Bft) O-NO 67 14,4 C 0,0 km/h (0 Bft)
21.07.2015 22:50 19,7 C 19,5 C 73 % 1012,5 hPa 0,0 mm 0,0 km/h (0 Bft) O-NO 67 14,7 C 0,0 km/h (0 Bft)
21.07.2015 22:55 19,7 C 19,5 C 73 % 1012,5 hPa 0,0 mm 0,0 km/h (0 Bft) O-NO 67 14,7 C 0,0 km/h (0 Bft)
21.07.2015 23:00 19,5 C 19,3 C 74 % 1012,5 hPa 0,0 mm 0,0 km/h (0 Bft) O-NO 67 14,7 C 0,0 km/h (0 Bft)
21.07.2015 23:05 19,4 C 19,2 C 74 % 1012,5 hPa 0,0 mm 0,0 km/h (0 Bft) O-NO 67 14,6 C 0,0 km/h (0 Bft)
21.07.2015 23:10 19,2 C 19,0 C 74 % 1012,4 hPa 0,0 mm 0,0 km/h (0 Bft) O-NO 67 14,4 C 0,0 km/h (0 Bft)
21.07.2015 23:15 19,0 C 18,8 C 74 % 1012,4 hPa 0,0 mm 0,0 km/h (0 Bft) O-NO 67 14,3 C 0,0 km/h (0 Bft)
21.07.2015 23:20 19,0 C 18,8 C 75 % 1012,4 hPa 0,0 mm 0,0 km/h (0 Bft) O 90 14,5 C 0,0 km/h (0 Bft)
21.07.2015 23:25 18,9 C 18,7 C 75 % 1012,4 hPa 0,0 mm 0,0 km/h (0 Bft) O-NO 67 14,4 C 0,0 km/h (0 Bft)
21.07.2015 23:30 18,7 C 18,5 C 75 % 1012,5 hPa 0,0 mm 0,0 km/h (0 Bft) O-NO 67 14,2 C 0,0 km/h (0 Bft)
21.07.2015 23:35 18,5 C 18,3 C 76 % 1012,5 hPa 0,0 mm 0,0 km/h (0 Bft) O-NO 67 14,2 C 0,0 km/h (0 Bft)
21.07.2015 23:40 18,5 C 18,3 C 76 % 1012,5 hPa 0,0 mm 0,0 km/h (0 Bft) O-NO 67 14,2 C 0,0 km/h (0 Bft)
21.07.2015 23:45 18,4 C 18,2 C 77 % 1012,5 hPa 0,0 mm 0,0 km/h (0 Bft) O-NO 67 14,3 C 0,0 km/h (0 Bft)
21.07.2015 23:50 18,3 C 18,1 C 77 % 1012,4 hPa 0,0 mm 0,0 km/h (0 Bft) O 90 14,2 C 0,0 km/h (0 Bft)
21.07.2015 23:55 18,2 C 18,0 C 77 % 1012,4 hPa 0,0 mm 0,0 km/h (0 Bft) O-NO 67 14,1 C 0,0 km/h (0 Bft)
_ Min-Zeit 06:05 05:45 16:15 21:05 - 23:55 - - 06:15 23:55
Minimum _ 14,7 C 14,5 C 45 % 1012,0 hPa - 0,0 km/h (0 Bft) - - 12,1 C 0,0 km/h (0 Bft)
_ Max-Zeit 15:30 14:30 06:10 12:25 23:55 15:50 - - 12:55 16:30
Maximum _ 30,8 C 36,5 C 85 % 1014,6 hPa 0,0 mm 8,8 km/h
W-NW (2 Bft)
- - 18,1 C 20,7 km/h
W-SW (4 Bft)
Durchschnitt _ 23,2 C 26,3 C 63 % 1012,9 hPa #0,0 mm 2,4 km/h (1 Bft) NW - 15,3 C 3,2 km/h (1 Bft)